Time,TemperatureF,DewpointF,PressureIn,WindDirection,WindDirectionDegrees,WindSpeedMPH,WindSpeedGustMPH,Humidity,HourlyPrecipIn,Conditions,Clouds,dailyrainin,SolarRadiationWatts/m^2,SoftwareType,DateUTC
2013-07-09 04:42:00,54.0,29.0,-100.00,ESE,108,2.0,4.0,38,-99.99,,,-99.99,0.000000,,2013-07-09 11:42:00,
2013-07-09 08:34:00,63.0,40.0,-100.00,ESE,111,2.0,5.0,42,-99.99,,,-99.99,62.000000,,2013-07-09 15:34:00,
2013-07-09 08:43:00,63.0,40.0,-100.00,ESE,111,2.0,5.0,42,-99.99,,,-99.99,62.000000,,2013-07-09 15:43:00,
2013-07-09 08:52:00,63.0,40.0,-100.00,ESE,111,2.0,5.0,42,-99.99,,,-99.99,62.000000,,2013-07-09 15:52:00,
2013-07-09 09:01:00,63.0,40.0,-100.00,ESE,111,2.0,5.0,42,-99.99,,,-99.99,62.000000,,2013-07-09 16:01:00,
2013-07-09 09:02:00,74.0,45.0,-100.00,SW,221,1.0,4.0,35,0.00,,,-99.99,438.000000,,2013-07-09 16:02:00,
2013-07-09 10:35:00,81.0,31.0,-100.00,West,265,3.0,10.0,16,0.00,,,-99.99,655.000000,,2013-07-09 17:35:00,
2013-07-09 10:45:00,81.0,31.0,-100.00,West,265,3.0,10.0,16,0.00,,,-99.99,655.000000,,2013-07-09 17:45:00,
2013-07-09 10:53:00,81.0,31.0,-100.00,West,265,3.0,10.0,16,0.00,,,-99.99,655.000000,,2013-07-09 17:53:00,
2013-07-09 11:01:00,81.0,31.0,-100.00,West,265,3.0,10.0,16,0.00,,,-99.99,655.000000,,2013-07-09 18:01:00,
2013-07-09 11:32:00,83.0,31.0,-100.00,SW,218,2.0,14.0,15,0.00,,,-99.99,822.000000,,2013-07-09 18:32:00,
2013-07-09 11:43:00,83.0,31.0,-100.00,SW,218,2.0,14.0,15,0.00,,,-99.99,822.000000,,2013-07-09 18:43:00,
2013-07-09 11:52:00,83.0,31.0,-100.00,SW,218,2.0,14.0,15,0.00,,,-99.99,822.000000,,2013-07-09 18:52:00,
2013-07-09 12:01:00,83.0,31.0,-100.00,SW,218,2.0,14.0,15,0.00,,,-99.99,822.000000,,2013-07-09 19:01:00,
2013-07-09 12:33:00,84.0,31.0,-100.00,SE,126,3.0,15.0,15,0.00,,,-99.99,950.000000,,2013-07-09 19:33:00,
2013-07-09 12:42:00,84.0,31.0,-100.00,SE,126,3.0,15.0,15,0.00,,,-99.99,950.000000,,2013-07-09 19:42:00,
2013-07-09 12:52:00,84.0,31.0,-100.00,SE,126,3.0,15.0,15,0.00,,,-99.99,950.000000,,2013-07-09 19:52:00,
2013-07-09 13:01:00,84.0,31.0,-100.00,SE,126,3.0,15.0,15,0.00,,,-99.99,950.000000,,2013-07-09 20:01:00,
2013-07-09 13:32:00,86.0,35.0,-100.00,West,261,3.0,11.0,16,0.00,,,-99.99,1012.000000,,2013-07-09 20:32:00,
2013-07-09 13:43:00,86.0,35.0,-100.00,West,261,3.0,11.0,16,0.00,,,-99.99,1012.000000,,2013-07-09 20:43:00,
2013-07-09 13:52:00,86.0,35.0,-100.00,West,261,3.0,11.0,16,0.00,,,-99.99,1012.000000,,2013-07-09 20:52:00,
2013-07-09 14:01:00,86.0,35.0,-100.00,West,261,3.0,11.0,16,0.00,,,-99.99,1012.000000,,2013-07-09 21:01:00,
2013-07-09 14:32:00,87.0,34.0,-100.00,NW,321,2.0,16.0,15,0.00,,,0.00,1017.000000,,2013-07-09 21:32:00,
2013-07-09 14:42:00,87.0,34.0,-100.00,NW,321,2.0,16.0,15,0.00,,,0.00,1017.000000,,2013-07-09 21:42:00,
2013-07-09 14:52:00,87.0,34.0,-100.00,NW,321,2.0,16.0,15,0.00,,,0.00,1017.000000,,2013-07-09 21:52:00,
2013-07-09 15:01:00,87.0,34.0,-100.00,NW,321,2.0,16.0,15,0.00,,,0.00,1017.000000,,2013-07-09 22:01:00,
2013-07-09 15:33:00,85.0,34.0,-100.00,NW,305,5.0,12.0,16,0.00,,,0.00,981.000000,,2013-07-09 22:33:00,
2013-07-09 15:42:00,85.0,34.0,-100.00,NW,305,5.0,12.0,16,0.00,,,0.00,981.000000,,2013-07-09 22:42:00,
2013-07-09 15:53:00,85.0,34.0,-100.00,NW,305,5.0,12.0,16,0.00,,,0.00,981.000000,,2013-07-09 22:53:00,
2013-07-09 16:01:00,85.0,34.0,-100.00,NW,305,5.0,12.0,16,0.00,,,0.00,981.000000,,2013-07-09 23:01:00,
2013-07-09 16:33:00,86.0,35.0,-100.00,NNW,341,4.0,14.0,16,0.00,,,0.00,886.000000,,2013-07-09 23:33:00,
2013-07-09 16:43:00,86.0,35.0,-100.00,NNW,341,4.0,14.0,16,0.00,,,0.00,886.000000,,2013-07-09 23:43:00,
2013-07-09 16:53:00,86.0,35.0,-100.00,NNW,341,4.0,14.0,16,0.00,,,0.00,886.000000,,2013-07-09 23:53:00,
2013-07-09 17:01:00,86.0,35.0,-100.00,NNW,341,4.0,14.0,16,0.00,,,0.00,886.000000,,2013-07-10 00:01:00,
2013-07-09 17:33:00,85.0,34.0,-100.00,NW,321,4.0,12.0,16,0.00,,,0.00,740.000000,,2013-07-10 00:33:00,
2013-07-09 17:43:00,85.0,34.0,-100.00,NW,321,4.0,12.0,16,0.00,,,0.00,740.000000,,2013-07-10 00:43:00,
2013-07-09 17:52:00,85.0,34.0,-100.00,NW,321,4.0,12.0,16,0.00,,,0.00,740.000000,,2013-07-10 00:52:00,
2013-07-09 18:01:00,85.0,34.0,-100.00,NW,321,4.0,12.0,16,0.00,,,0.00,740.000000,,2013-07-10 01:01:00,
2013-07-09 18:33:00,82.0,33.0,-100.00,WNW,287,4.0,13.0,17,0.00,,,0.00,511.000000,,2013-07-10 01:33:00,
2013-07-09 18:43:00,82.0,33.0,-100.00,WNW,287,4.0,13.0,17,0.00,,,0.00,511.000000,,2013-07-10 01:43:00,
2013-07-09 18:53:00,82.0,33.0,-100.00,WNW,287,4.0,13.0,17,0.00,,,0.00,511.000000,,2013-07-10 01:53:00,
2013-07-09 19:01:00,82.0,33.0,-100.00,WNW,287,4.0,13.0,17,0.00,,,0.00,511.000000,,2013-07-10 02:01:00,
2013-07-09 19:34:00,78.0,32.0,-100.00,WNW,302,3.0,10.0,19,0.00,,,0.00,54.000000,,2013-07-10 02:34:00,
2013-07-09 19:43:00,78.0,32.0,-100.00,WNW,302,3.0,10.0,19,0.00,,,0.00,54.000000,,2013-07-10 02:43:00,
2013-07-09 19:53:00,78.0,32.0,-100.00,WNW,302,3.0,10.0,19,0.00,,,0.00,54.000000,,2013-07-10 02:53:00,
2013-07-09 20:01:00,78.0,32.0,-100.00,WNW,302,3.0,10.0,19,0.00,,,0.00,54.000000,,2013-07-10 03:01:00,
2013-07-09 20:22:00,71.0,36.0,-100.00,ENE,57,1.0,6.0,28,0.00,,,0.00,87.000000,,2013-07-10 03:22:00,
2013-07-09 20:32:00,71.0,36.0,-100.00,ENE,57,1.0,6.0,28,0.00,,,0.00,87.000000,,2013-07-10 03:32:00,
2013-07-09 20:43:00,71.0,36.0,-100.00,ENE,57,1.0,6.0,28,0.00,,,0.00,87.000000,,2013-07-10 03:43:00,
2013-07-09 20:52:00,71.0,36.0,-100.00,ENE,57,1.0,6.0,28,0.00,,,0.00,87.000000,,2013-07-10 03:52:00,
2013-07-09 21:01:00,71.0,36.0,-100.00,ENE,57,1.0,6.0,28,0.00,,,0.00,87.000000,,2013-07-10 04:01:00,
2013-07-09 21:33:00,65.0,37.0,-100.00,ESE,116,0.0,3.0,36,0.00,,,0.00,4.000000,,2013-07-10 04:33:00,
2013-07-09 21:43:00,65.0,37.0,-100.00,ESE,116,0.0,3.0,36,0.00,,,0.00,4.000000,,2013-07-10 04:43:00,
2013-07-09 21:52:00,65.0,37.0,-100.00,ESE,116,0.0,3.0,36,0.00,,,0.00,4.000000,,2013-07-10 04:52:00,
2013-07-09 22:01:00,65.0,37.0,-100.00,ESE,116,0.0,3.0,36,0.00,,,0.00,4.000000,,2013-07-10 05:01:00,
2013-07-09 22:32:00,61.0,38.0,-100.00,East,91,1.0,4.0,42,0.00,,,0.00,0.000000,,2013-07-10 05:32:00,
2013-07-09 22:42:00,61.0,38.0,-100.00,East,91,1.0,4.0,42,0.00,,,0.00,0.000000,,2013-07-10 05:42:00,
2013-07-09 22:53:00,61.0,38.0,-100.00,East,91,1.0,4.0,42,0.00,,,0.00,0.000000,,2013-07-10 05:53:00,
2013-07-09 23:01:00,61.0,38.0,-100.00,East,91,1.0,4.0,42,0.00,,,0.00,0.000000,,2013-07-10 06:01:00,